{"data":{"norad_id":63172,"intl_designator":"2025-046P","name":"QIANFAN-86","alt_names":[],"object_type":"PAYLOAD","status":"ACTIVE","operator":null,"country":"PRC","launch_date":"2025-03-11","launch_site_code":"WSC","launch_vehicle":null,"mission":null,"orbit_class":"UNKNOWN","rcs_meters":null,"size_class":null,"mass_kg":null,"dimensions":null,"purposes":[],"wikipedia_slug":null,"has_3d_model":false,"image_url":null,"decayed_at":null,"tle_current":{"epoch":"2026-09-22T21:12:12.837024Z","epoch_age_seconds":104887,"freshness":"FRESH","line1":"1 63172U 25046P   26265.88348191  .00000100  00000+0  13668-3 0  9996","line2":"2 63172  88.9643 290.2843 0012196  39.6747 320.5294 13.51026393 85913","mean_motion":13.51026393,"eccentricity":0.0012196,"inclination_deg":88.9643,"raan_deg":290.2843,"arg_perigee_deg":39.6747,"mean_anomaly_deg":320.5294,"bstar":0.00013668,"rev_number":8591,"period_min":106.58563055918,"perigee_km":1059.4027015561,"apogee_km":1077.5665009659,"semimajor_km":7446.621601261,"source":"CELESTRAK","updated_at":"2026-09-23T09:00:21.881890Z"}}}